{"data":{"norad_id":54805,"intl_designator":"2022-175AZ","name":"STARLINK-5417","alt_names":[],"object_type":"PAYLOAD","status":"ACTIVE","operator":null,"country":"US","launch_date":"2022-12-17","launch_site_code":"AFETR","launch_vehicle":null,"mission":null,"orbit_class":"UNKNOWN","rcs_meters":null,"size_class":null,"mass_kg":null,"dimensions":null,"purposes":["comms"],"wikipedia_slug":null,"has_3d_model":false,"image_url":null,"decayed_at":null,"tle_current":{"epoch":"2026-05-25T03:11:10.849344Z","epoch_age_seconds":57535,"freshness":"FRESH","line1":"1 54805U 22175AZ  26145.13276446  .00003787  00000+0  26172-3 0  9995","line2":"2 54805  53.2188  45.6832 0001376  96.0672 264.0477 15.07992879191677","mean_motion":15.07992879,"eccentricity":0.0001376,"inclination_deg":53.2188,"raan_deg":45.6832,"arg_perigee_deg":96.0672,"mean_anomaly_deg":264.0477,"bstar":0.00026172,"rev_number":19167,"period_min":95.491167103847,"perigee_km":541.38165422149,"apogee_km":543.2861678162,"semimajor_km":6920.4709110188,"source":"CELESTRAK","updated_at":"2026-05-25T13:38:17.698097Z"}}}